Regional Weather Roundup
Issued by NWS

Home | Current Version | Previous Version | Text Only | Print | Product List | Glossary On
Versions: 1 2 3 4 5 6 7 8 9 10 11 12 13 14 15 16 17 18 19 20 21 22 23 24 25 26 27 28
000
ASUS46 KPQR 270510
RWROR

OREGON REGIONAL WEATHER ROUNDUP
NATIONAL WEATHER SERVICE PORTLAND OR
1000 PM PDT MON SEP 26 2016

NOTE: "FAIR" INDICATES FEW OR NO CLOUDS BELOW 12,000 FEET WITH
NO SIGNIFICANT WEATHER AND/OR OBSTRUCTIONS TO VISIBILITY.

ORZ001>013-270600-
NORTHWEST OREGON


CITY           SKY/WX    TMP DP  RH WIND       PRES   REMARKS
ASTORIA        CLOUDY    63  60  90 NW5       30.12R
NEWPORT        CLOUDY    55  55 100 N7        30.15S FOG
PORTLAND       CLEAR     69  58  67 NW13G20   30.05R
VANCOUVER WA   CLEAR     69  58  67 NW10G17   30.04R
SCAPPOOSE      CLEAR     66  57  72 N13       30.05R
HILLSBORO      CLEAR     66  58  75 NW10      30.05R
AURORA         CLEAR     71  55  56 N9        30.05R
MCMINNVILLE    CLEAR     65  56  72 SW10      30.05R
SALEM          CLEAR     70  54  56 NW5       30.03R
CORVALLIS        N/A     66  54  63 NW15G21   30.05R
EUGENE         CLEAR     67  53  61 W6        30.05R
$$

ORZ021-028-270600-
SOUTHWEST OREGON


CITY           SKY/WX    TMP DP  RH WIND       PRES   REMARKS
NORTH BEND       N/A     59  57  94 N12       30.14R
BROOKINGS      CLEAR     60  54  80 CALM      30.03R
ROSEBURG       CLEAR     70  51  51 CALM      30.05R
SEXTON SUMMIT  CLEAR     64  47  53 N12       30.17R
MEDFORD        CLEAR     76  49  38 W6        30.03R
$$

ORZ014>016-041-270600-
COLUMBIA GORGE


CITY           SKY/WX    TMP DP  RH WIND       PRES   REMARKS
TROUTDALE      CLEAR     71  58  63 VRB7      30.04R
THE DALLES     CLEAR     70  48  45 W3        29.95S
$$

ORZ029>031-041-044-049-050-061>064-502-503-505>511-270600-
EASTERN OREGON


CITY           SKY/WX    TMP DP  RH WIND       PRES   REMARKS
REDMOND        CLEAR     72  37  28 NW7       30.10R
BEND           CLEAR     70  43  37 W6        30.13R
PRINEVILLE     CLEAR     70  37  30 W6        30.11R
KLAMATH FALLS  CLEAR     57  42  57 S3        30.16R
LAKEVIEW       CLEAR     52  30  43 NW8       30.20S
HERMISTON      CLEAR     61  46  57 S5        29.95S
PENDLETON      CLEAR     66  46  48 S6        29.99R
JOHN DAY       CLEAR     70  37  30 SE8       30.13S
MEACHAM        CLEAR     61  37  41 CALM      30.12F
LA GRANDE      CLEAR     72  36  26 S9        30.08F
BAKER CITY     CLEAR     53  37  54 W3        30.15S
BURNS          CLEAR     57  32  38 CALM      30.17S
ROME             N/A     65  35  33 N12       30.15F
ONTARIO        CLEAR     59  43  55 SW6       30.12S
$$




USA.gov is the U.S. government's official web portal to all federal, state and local government web resources and services.